FW0288 Weather Reports


time (UTC)temp
C
wind
direction
speed
KPH
gust
KPH
rain 1hr
cm
rain 24hr
cm
rain mn
cm
humidity
%
barometer
mb
20260904224545 31 360 0.0 6.4 0.00 0.00 0.00 19 1000.4
20260904223042 31 360 0.0 9.7 0.00 0.00 0.00 23 1000.3
20260904221536 31 360 0.0 6.4 0.00 0.00 0.00 18 1000.4
20260904220036 31 360 0.0 6.4 0.00 0.00 0.00 19 1000.5
20260904214541 32 138 0.0 6.4 0.00 0.00 0.00 19 1000.6
20260904213033 31 360 1.6 17.7 0.00 0.00 0.00 22 1000.8
20260904211531 31 139 0.0 9.7 0.00 0.00 0.00 21 1000.9
20260904210030 31 189 3.2 9.7 0.00 0.00 0.00 24 1001.1
20260904204531 31 360 1.6 8.0 0.00 0.00 0.00 24 1001.4
20260904203032 31 360 1.6 8.0 0.00 0.00 0.00 22 1001.6
20260904201526 30 96 1.6 16.1 0.00 0.00 0.00 22 1001.8
20260904200030 30 360 1.6 6.4 0.00 0.00 0.00 23 1001.9
20260904194525 30 360 1.6 14.5 0.00 0.00 0.00 23 1001.9
20260904193036 30 360 3.2 17.7 0.00 0.00 0.00 22 1002.1
20260904191524 30 360 1.6 16.1 0.00 0.00 0.00 23 1002.3
20260904190023 30 360 1.6 9.7 0.00 0.00 0.00 23 1002.3
20260904184523 30 126 0.0 9.7 0.00 0.00 0.00 22 1002.4
20260904183020 30 360 0.0 9.7 0.00 0.00 0.00 26 1002.6
20260904181516 29 360 0.0 9.7 0.00 0.00 0.00 26 1002.7
20260904180013 29 360 1.6 17.7 0.00 0.00 0.00 24 1002.8
20260904174511 28 360 1.6 8.0 0.00 0.00 0.00 26 1003.0
20260904173008 29 360 0.0 6.4 0.00 0.00 0.00 25 1003.0
20260904171508 28 360 3.2 14.5 0.00 0.00 0.00 29 1003.1
20260904170101 28 360 0.0 4.8 0.00 0.00 0.00 28 1003.2
20260904164656 29 360 0.0 4.8 0.00 0.00 0.00 25 1003.3
20260904163100 27 86 0.0 6.4 0.00 0.00 0.00 28 1003.4
20260904161548 27 360 0.0 3.2 0.00 0.00 0.00 31 1003.4
20260904160044 27 360 1.6 9.7 0.00 0.00 0.00 28 1003.4
20260904154540 27 62 0.0 0.0 0.00 0.00 0.00 29 1003.5
20260904153046 25 58 0.0 0.0 0.00 0.00 0.00 33 1003.5
20260904151530 25 89 0.0 0.0 0.00 0.00 0.00 34 1003.4
20260904150026 24 360 0.0 0.0 0.00 0.00 0.00 36 1003.4
20260904144522 23 360 0.0 0.0 0.00 0.00 0.00 34 1003.3
20260904143018 23 107 0.0 0.0 0.00 0.00 0.00 39 1003.3
20260904141515 22 107 0.0 0.0 0.00 0.00 0.00 41 1003.4
20260904140008 22 191 0.0 0.0 0.00 0.00 0.00 47 1003.4
20260904134504 18 191 0.0 0.0 0.00 0.00 0.00 49 1003.3
20260904133101 17 168 0.0 0.0 0.00 0.00 0.00 48 1003.1
20260904131631 16 167 0.0 0.0 0.00 0.00 0.00 52 1002.9
20260904130051 16 167 0.0 0.0 0.00 0.00 0.00 47 1002.9
20260904124551 16 167 0.0 0.0 0.00 0.00 0.00 49 1002.8
20260904123103 15 155 0.0 3.2 0.00 0.00 0.00 51 1002.7
20260904121545 15 182 0.0 0.0 0.00 0.00 0.00 51 1002.6
20260904120043 14 259 0.0 0.0 0.00 0.00 0.00 52 1002.5
20260904114545 14 258 0.0 0.0 0.00 0.00 0.00 54 1002.4
20260904113040 15 258 0.0 0.0 0.00 0.00 0.00 52 1002.2
20260904111545 15 258 0.0 0.0 0.00 0.00 0.00 50 1002.3
20260904110037 15 258 0.0 0.0 0.00 0.00 0.00 51 1001.9
20260904104532 15 258 0.0 0.0 0.00 0.00 0.00 51 1001.8
20260904103036 16 259 0.0 0.0 0.00 0.00 0.00 51 1001.7
20260904101527 16 259 0.0 0.0 0.00 0.00 0.00 50 1001.5
20260904100027 16 258 0.0 0.0 0.00 0.00 0.00 49 1001.4
20260904094524 16 259 0.0 0.0 0.00 0.00 0.00 51 1001.2
20260904093021 17 259 0.0 0.0 0.00 0.00 0.00 46 1001.2
20260904091518 18 259 0.0 0.0 0.00 0.00 0.00 45 1001.1
20260904090119 18 258 0.0 0.0 0.00 0.00 0.00 45 1001.1
20260904084516 18 258 0.0 0.0 0.00 0.00 0.00 43 1001.0
20260904083017 19 258 0.0 6.4 0.00 0.00 0.00 41 1000.9
20260904081515 18 258 0.0 0.0 0.00 0.00 0.00 43 1000.8
20260904080114 18 261 0.0 0.0 0.00 0.00 0.00 44 1000.8
20260904074512 18 261 0.0 0.0 0.00 0.00 0.00 44 1000.9
20260904073016 18 261 0.0 3.2 0.00 0.00 0.00 44 1000.7
20260904071527 18 231 0.0 0.0 0.00 0.00 0.00 44 1000.8
20260904070009 18 182 0.0 0.0 0.00 0.00 0.00 45 1000.9
20260904064504 19 159 0.0 0.0 0.00 0.00 0.00 45 1001.3
20260904063002 20 159 0.0 0.0 0.00 0.00 0.00 41 1001.2
20260904061603 21 159 0.0 0.0 0.00 0.00 0.00 39 1001.3
20260904060111 20 157 0.0 6.4 0.00 0.00 0.00 39 1001.4
20260904054558 20 261 0.0 0.0 0.00 0.00 0.00 45 1001.1
20260904053054 21 261 0.0 0.0 0.00 0.00 0.00 39 1000.7
20260904051553 21 261 0.0 0.0 0.00 0.00 0.00 37 1000.6
20260904050052 22 261 0.0 1.6 0.00 0.00 0.00 39 1000.6
20260904044557 23 284 0.0 1.6 0.00 0.00 0.00 34 1000.5
20260904043052 23 360 0.0 1.6 0.00 0.00 0.00 33 1000.6
20260904041551 23 360 0.0 1.6 0.00 0.00 0.00 33 1000.6
20260904040050 24 297 0.0 3.2 0.00 0.00 0.00 33 1000.7
20260904034600 24 360 0.0 6.4 0.00 0.03 0.00 34 1000.8
20260904033049 24 279 1.6 9.7 0.00 0.03 0.00 34 1000.7
20260904031548 24 293 0.0 14.5 0.00 0.03 0.00 34 1000.7
20260904030046 25 289 0.0 8.0 0.00 0.03 0.00 34 1000.6
20260904024546 24 286 0.0 3.2 0.00 0.08 0.00 34 1000.6
20260904023045 25 319 0.0 0.0 0.00 0.08 0.00 34 1000.6
20260904021548 25 302 0.0 3.2 0.00 0.08 0.00 34 1000.3
20260904020043 25 346 0.0 0.0 0.00 0.08 0.00 33 1000.2
20260904014546 26 355 0.0 0.0 0.00 0.08 0.00 31 1000.1
20260904013043 27 340 0.0 0.0 0.00 0.08 0.00 28 1000.1
20260904011543 27 69 0.0 0.0 0.00 0.08 0.00 26 1000.0
20260904010050 28 360 0.0 0.0 0.00 0.08 0.00 26 1000.1
20260904004556 28 360 0.0 0.0 0.00 0.08 0.00 25 1000.1
20260904003039 29 23 0.0 1.6 0.00 0.08 0.00 23 1000.0
20260904001538 28 9 0.0 0.0 0.00 0.08 0.00 23 1000.1
20260904000048 29 13 0.0 0.0 0.00 0.08 0.00 23 1000.0
20260903234543 29 41 0.0 6.4 0.00 0.08 0.00 22 1000.0
20260903233037 30 360 0.0 1.6 0.00 0.08 0.00 22 1000.1
20260903231536 30 355 0.0 0.0 0.00 0.08 0.00 21 1000.0
20260903230035 30 336 0.0 1.6 0.00 0.08 0.00 21 1000.1